User: anonymous   Login
Location: Brabourne
(51.1333°N, 1.0000°E)
Time: 11:02:55
(UTC+00:00)
Language:

USA 305 - Orbit

View from above orbital plane
View from above orbital plane
View from above satellite
View from above satellite

Ground track
Ground track

The orbit data is extracted from the following two-line orbital elements,

1 45873U 20046A   21266.83613278 0.00003400  00000-0  27322-3 0    03
2 45873  53.9778 197.0180 0008453  38.5147 321.4852 14.99547925    02
Epoch (UTC): 23 September 2021 20:04:01
Eccentricity: 0.0008453
inclination: 53.9778°
perigee height: 562 km
apogee height: 574 km
right ascension of ascending node: 197.0180°
argument of perigee: 38.5147°
revolutions per day: 14.99547925
mean anomaly at epoch: 321.4852°
orbit number at epoch: 0

The dashed part of the orbit path shows where the satellite is in the earth's shadow,  

DLR